KRUPKA Weather Reports


time (UTC)temp
C
wind
direction
speed
KPH
gust
KPH
rain 1hr
cm
rain 24hr
cm
rain mn
cm
humidity
%
barometer
mb
20260506070504 8 255 6.4 11.3 0.00 0.00 0.00 92
20260506062504 8 244 11.3 17.7 0.00 0.00 0.00 92
20260506062007 8 269 11.3 17.7 0.00 0.00 0.00 92
20260506061504 8 259 3.2 14.5 0.00 0.00 0.00 92
20260506061003 8 265 11.3 17.7 0.00 0.00 0.00 92
20260506060504 8 271 6.4 14.5 0.00 0.00 0.00 92
20260506051004 8 258 6.4 11.3 0.00 0.00 0.00 91
20260506050503 7 243 3.2 6.4 0.00 0.00 0.00 91
20260506045004 7 252 3.2 6.4 0.00 0.00 0.00 91
20260506044503 7 231 6.4 17.7 0.00 0.00 0.00 91
20260506044003 7 251 3.2 6.4 0.00 0.00 0.00 91
20260506043503 7 260 6.4 14.5 0.00 0.00 0.00 91
20260506043002 7 251 6.4 11.3 0.00 0.00 0.00 90
20260506042502 7 261 3.2 11.3 0.00 0.00 0.00 90
20260506042002 7 250 3.2 11.3 0.00 0.00 0.00 90
20260506041503 7 267 6.4 14.5 0.00 0.00 0.00 90
20260506041004 7 268 6.4 14.5 0.00 0.00 0.00 90
20260506040503 7 261 3.2 11.3 0.00 0.00 0.00 90
20260506040003 7 263 6.4 11.3 0.00 0.00 0.00 90
20260506035504 7 256 6.4 14.5 0.00 0.00 0.00 90
20260506035003 7 266 6.4 11.3 0.00 0.00 0.00 90
20260506034504 7 270 3.2 6.4 0.00 0.00 0.00 90
20260506034004 7 257 3.2 11.3 0.00 0.00 0.00 89
20260506033504 7 269 11.3 14.5 0.00 0.00 0.00 89
20260506033004 7 266 6.4 11.3 0.00 0.00 0.00 89
20260506032503 7 270 6.4 17.7 0.00 0.00 0.00 89
20260506032008 7 272 6.4 11.3 0.00 0.00 0.00 89
20260506031504 7 259 6.4 11.3 0.00 0.00 0.00 89
20260506031003 7 262 3.2 11.3 0.00 0.00 0.00 89
20260506030504 7 261 6.4 11.3 0.00 0.00 0.00 89
20260506030004 7 252 6.4 14.5 0.00 0.00 0.00 90
20260506025503 7 253 6.4 14.5 0.00 0.00 0.00 89
20260506025003 7 262 6.4 11.3 0.00 0.00 0.00 89
20260506024505 7 266 11.3 14.5 0.00 0.00 0.00 89
20260506024003 7 264 11.3 17.7 0.00 0.00 0.00 89
20260506023504 7 278 3.2 11.3 0.00 0.00 0.00 89
20260506023004 7 273 6.4 11.3 0.00 0.00 0.00 89
20260506022503 7 257 11.3 20.9 0.00 0.00 0.00 89
20260506022006 7 267 6.4 14.5 0.00 0.00 0.00 89
20260506021504 7 271 6.4 11.3 0.00 0.00 0.00 89
20260506021004 7 283 6.4 14.5 0.00 0.00 0.00 89
20260506020503 7 286 6.4 11.3 0.00 0.00 0.00 89
20260506020004 7 281 3.2 6.4 0.00 0.00 0.00 89
20260506015502 7 274 3.2 11.3 0.00 0.00 0.00 89
20260506015011 7 260 3.2 11.3 0.00 0.00 0.00 89
20260506014504 7 270 3.2 6.4 0.00 0.00 0.00 89
20260506014003 7 252 3.2 6.4 0.00 0.00 0.00 89
20260506013504 7 262 6.4 14.5 0.00 0.00 0.00 89
20260506013003 7 272 6.4 11.3 0.00 0.00 0.00 88
20260506012502 7 269 6.4 14.5 0.00 0.00 0.00 89
20260506012003 7 264 6.4 14.5 0.00 0.00 0.00 89
20260506011503 7 268 6.4 14.5 0.00 0.00 0.00 89
20260506011003 7 268 11.3 14.5 0.00 0.00 0.00 88
20260506010503 7 266 11.3 14.5 0.00 0.00 0.00 88
20260506010003 7 262 3.2 6.4 0.00 0.00 0.00 88
20260506005503 8 269 11.3 14.5 0.00 0.00 0.00 88
20260506005003 7 250 6.4 11.3 0.00 0.00 0.00 88
20260506004504 7 260 6.4 11.3 0.00 0.00 0.00 88
20260506004003 8 265 11.3 11.3 0.00 0.00 0.00 87
20260506003503 8 271 6.4 11.3 0.00 0.00 0.00 87
20260506003004 7 271 11.3 14.5 0.00 0.00 0.00 87
20260506002502 8 275 11.3 14.5 0.00 0.00 0.00 87
20260506002004 8 276 11.3 14.5 0.00 0.00 0.00 87
20260506001503 8 279 6.4 11.3 0.00 0.00 0.00 87
20260506001003 8 268 11.3 14.5 0.00 0.00 0.00 87
20260506000503 8 283 11.3 17.7 0.00 0.00 0.00 87
20260506000004 8 267 6.4 14.5 0.00 0.00 0.00 86
20260505235503 8 279 11.3 14.5 0.00 0.00 0.00 86
20260505235003 8 277 11.3 17.7 0.00 0.00 0.00 86
20260505234503 8 278 11.3 14.5 0.00 0.00 0.00 86
20260505234004 8 271 11.3 14.5 0.00 0.00 0.00 85
20260505233503 8 291 3.2 11.3 0.00 0.00 0.00 85
20260505233004 8 272 0.0 0.0 0.00 0.00 0.00 85
20260505232502 8 316 3.2 6.4 0.00 0.00 0.00 85
20260505232005 8 307 3.2 6.4 0.00 0.00 0.00 85
20260505231503 8 343 6.4 14.5 0.00 0.00 0.00 85
20260505231003 8 337 11.3 20.9 0.00 0.00 0.00 85
20260505230504 8 342 14.5 20.9 0.00 0.00 0.00 85
20260505230003 8 340 14.5 17.7 0.00 0.00 0.00 85
20260505225502 10 345 14.5 20.9 0.00 0.00 0.00 85
20260505225003 10 324 11.3 11.3 0.00 0.00 0.00 85
20260505224503 8 333 6.4 14.5 0.00 0.00 0.00 85
20260505224011 10 338 14.5 17.7 0.00 0.00 0.00 86
20260505223503 8 316 11.3 14.5 0.00 0.00 0.00 86
20260505223004 8 298 11.3 14.5 0.00 0.00 0.00 86
20260505222503 8 304 11.3 14.5 0.00 0.00 0.00 87
20260505222005 8 296 14.5 29.0 0.00 0.00 0.00 87
20260505221504 8 277 17.7 29.0 0.00 0.00 0.00 87
20260505221003 8 284 11.3 20.9 0.00 0.00 0.00 87
20260505220503 8 276 14.5 32.2 0.00 0.00 0.00 87
20260505220003 8 268 17.7 32.2 0.00 0.00 0.00 88
20260505215503 8 266 14.5 20.9 0.00 0.00 0.00 87
20260505215008 8 283 17.7 32.2 0.00 0.00 0.00 88
20260505214503 8 282 29.0 40.2 0.00 0.00 0.00 88
20260505214003 8 293 17.7 29.0 0.00 0.00 0.00 88
20260505213503 8 281 20.9 35.4 0.00 0.00 0.00 88
20260505213003 8 279 14.5 32.2 0.00 0.00 0.00 88
20260505212503 8 286 25.7 43.5 0.00 0.00 0.00 89
20260505212004 8 274 20.9 35.4 0.00 0.00 0.00 88
20260505211504 8 278 11.3 20.9 0.00 0.00 0.00 88
20260505211003 8 283 6.4 17.7 0.00 0.00 0.00 88
20260505210503 8 270 20.9 46.7 0.00 0.00 0.00 88
20260505210003 8 283 14.5 25.7 0.00 0.00 0.00 87
20260505205503 8 285 17.7 29.0 0.00 0.00 0.00 86
20260505205002 10 294 14.5 20.9 0.00 0.00 0.00 86
20260505204504 11 260 20.9 32.2 0.00 0.00 0.00 85
20260505204003 12 262 11.3 20.9 0.00 0.00 0.00 85
20260505203510 12 31 11.3 17.7 0.00 0.00 0.00 86
20260505203004 12 23 14.5 20.9 0.00 0.00 0.00 86
20260505202504 12 33 14.5 17.7 0.00 0.00 0.00 86
20260505202012 12 15 14.5 17.7 0.00 0.00 0.00 85
20260505201503 12 26 17.7 20.9 0.00 0.00 0.00 86
20260505201003 12 25 14.5 25.7 0.00 0.00 0.00 85
20260505200504 12 21 11.3 20.9 0.00 0.00 0.00 86
20260505200004 12 34 17.7 25.7 0.00 0.00 0.00 86
20260505195502 12 14 14.5 25.7 0.00 0.00 0.00 86
20260505195003 12 19 20.9 35.4 0.00 0.00 0.00 87
20260505194504 12 26 17.7 29.0 0.00 0.00 0.00 86
20260505194003 12 19 14.5 20.9 0.00 0.00 0.00 86
20260505193504 12 359 14.5 29.0 0.00 0.00 0.00 85
20260505193004 12 14 17.7 25.7 0.00 0.00 0.00 85
20260505192503 12 4 14.5 29.0 0.00 0.00 0.00 85
20260505192005 12 10 25.7 43.5 0.00 0.00 0.00 85
20260505191504 12 12 25.7 32.2 0.00 0.00 0.00 85
20260505191003 12 7 25.7 43.5 0.00 0.00 0.00 84
20260505190503 12 12 20.9 43.5 0.00 0.00 0.00 84
20260505190004 12 6 29.0 40.2 0.00 0.00 0.00 84
20260505185503 12 10 32.2 43.5 0.00 0.00 0.00 84
20260505185003 12 8 32.2 46.7 0.00 0.00 0.00 84
20260505184504 12 10 20.9 49.9 0.00 0.00 0.00 84
20260505184004 12 12 32.2 46.7 0.00 0.00 0.00 84
20260505183503 12 7 29.0 35.4 0.00 0.00 0.00 84
20260505183004 12 9 32.2 40.2 0.00 0.00 0.00 83
20260505182503 12 3 29.0 40.2 0.00 0.00 0.00 84
20260505182006 12 17 29.0 43.5 0.00 0.00 0.00 83
20260505181503 12 4 32.2 43.5 0.00 0.00 0.00 82
20260505181002 12 15 29.0 40.2 0.00 0.00 0.00 82
20260505180503 12 10 29.0 43.5 0.00 0.00 0.00 82
20260505180004 12 11 29.0 43.5 0.00 0.00 0.00 82
20260505175503 12 12 20.9 40.2 0.00 0.00 0.00 82
20260505175003 12 4 35.4 46.7 0.00 0.00 0.00 82
20260505174503 12 8 29.0 35.4 0.00 0.00 0.00 81
20260505174002 12 15 29.0 40.2 0.00 0.00 0.00 81
20260505173503 12 10 29.0 40.2 0.00 0.00 0.00 81
20260505173008 12 12 29.0 43.5 0.00 0.00 0.00 81
20260505172504 12 10 25.7 43.5 0.00 0.00 0.00 80
20260505172005 12 8 25.7 32.2 0.00 0.00 0.00 80
20260505171503 12 4 20.9 32.2 0.00 0.00 0.00 79
20260505171003 13 5 20.9 32.2 0.00 0.00 0.00 79
20260505170502 13 356 29.0 35.4 0.00 0.00 0.00 79
20260505170003 13 8 25.7 40.2 0.00 0.00 0.00 78
20260505165504 13 17 20.9 29.0 0.00 0.00 0.00 77
20260505165003 13 4 20.9 40.2 0.00 0.00 0.00 76
20260505164504 13 5 25.7 43.5 0.00 0.00 0.00 76
20260505164003 13 31 20.9 40.2 0.00 0.00 0.00 75
20260505163504 13 13 29.0 35.4 0.00 0.00 0.00 75
20260505163004 13 24 29.0 43.5 0.00 0.00 0.00 74
20260505162503 13 13 25.7 40.2 0.00 0.00 0.00 75
20260505162003 13 13 20.9 32.2 0.00 0.00 0.00 75
20260505161504 13 6 20.9 40.2 0.00 0.00 0.00 75
20260505161003 13 16 20.9 40.2 0.00 0.00 0.00 75
20260505160503 13 9 25.7 43.5 0.00 0.00 0.00 75
20260505153003 15 16 20.9 32.2 0.00 0.00 0.00 75
20260505152504 15 7 25.7 43.5 0.00 0.00 0.00 75
20260505152005 15 9 20.9 43.5 0.00 0.00 0.00 75
20260505151503 15 3 17.7 32.2 0.00 0.00 0.00 75
20260505151003 15 8 20.9 32.2 0.00 0.00 0.00 75
20260505150504 15 10 20.9 40.2 0.00 0.00 0.00 75
20260505140503 12 23 20.9 35.4 0.00 0.00 0.00 81
20260505125003 17 19 11.3 20.9 0.00 0.00 0.00 58
20260505124503 17 12 17.7 25.7 0.00 0.00 0.00 58
20260505124003 17 13 11.3 20.9 0.00 0.00 0.00 58
20260505123504 17 6 14.5 20.9 0.00 0.00 0.00 57
20260505123003 18 8 20.9 35.4 0.00 0.00 0.00 57
20260505122502 18 12 14.5 25.7 0.00 0.00 0.00 57
20260505122006 18 17 11.3 20.9 0.00 0.00 0.00 57
20260505121503 18 22 17.7 32.2 0.00 0.00 0.00 57
20260505121003 18 34 11.3 20.9 0.00 0.00 0.00 57
20260505120503 18 11 14.5 20.9 0.00 0.00 0.00 56
20260505120003 18 6 14.5 20.9 0.00 0.00 0.00 56
20260505115502 18 18 11.3 29.0 0.00 0.00 0.00 56
20260505115003 18 33 11.3 17.7 0.00 0.00 0.00 56
20260505114503 18 10 6.4 17.7 0.00 0.00 0.00 57
20260505114007 18 338 3.2 14.5 0.00 0.00 0.00 58
20260505113504 17 10 6.4 17.7 0.00 0.00 0.00 58
20260505113004 17 6 14.5 25.7 0.00 0.00 0.00 57
20260505112504 18 14 11.3 17.7 0.00 0.00 0.00 57
20260505112005 18 10 14.5 17.7 0.00 0.00 0.00 56
20260505111504 18 9 6.4 17.7 0.00 0.00 0.00 57
20260505111003 18 10 11.3 17.7 0.00 0.00 0.00 58
20260505110503 18 16 11.3 20.9 0.00 0.00 0.00 57
20260505101504 17 6 6.4 14.5 0.00 0.00 0.00 59
20260505101003 17 6 14.5 17.7 0.00 0.00 0.00 59
20260505100503 17 11 6.4 17.7 0.00 0.00 0.00 59
20260505100004 17 19 11.3 17.7 0.00 0.00 0.00 58
20260505095503 18 20 11.3 20.9 0.00 0.00 0.00 57
20260505095003 18 14 11.3 20.9 0.00 0.00 0.00 57
20260505094503 18 15 6.4 17.7 0.00 0.00 0.00 58
20260505094003 18 6 17.7 20.9 0.00 0.00 0.00 57
20260505093504 17 8 11.3 17.7 0.00 0.00 0.00 59
20260505093008 17 3 11.3 20.9 0.00 0.00 0.00 60
20260505092503 17 1 11.3 20.9 0.00 0.00 0.00 60
20260505092004 17 10 11.3 17.7 0.00 0.00 0.00 60
20260505091503 17 1 11.3 17.7 0.00 0.00 0.00 59
20260505091003 17 9 6.4 17.7 0.00 0.00 0.00 59
20260505090503 17 10 6.4 14.5 0.00 0.00 0.00 59
20260505090004 18 7 11.3 20.9 0.00 0.00 0.00 58
20260505085503 17 24 11.3 20.9 0.00 0.00 0.00 58
20260505085003 17 20 6.4 11.3 0.00 0.00 0.00 59
20260505084503 17 33 6.4 17.7 0.00 0.00 0.00 60
20260505084003 17 14 6.4 14.5 0.00 0.00 0.00 60
20260505083503 17 15 11.3 17.7 0.00 0.00 0.00 60
20260505083004 17 2 14.5 20.9 0.00 0.00 0.00 60
20260505082503 17 3 14.5 25.7 0.00 0.00 0.00 61
20260505082006 17 11 14.5 20.9 0.00 0.00 0.00 62
20260505081503 16 5 11.3 17.7 0.00 0.00 0.00 63
20260505081003 16 11 11.3 17.7 0.00 0.00 0.00 62
20260505080503 17 9 6.4 11.3 0.00 0.00 0.00 62
20260505080003 17 2 6.4 11.3 0.00 0.00 0.00 63
20260505075503 17 16 3.2 11.3 0.00 0.00 0.00 63
20260505075003 17 7 3.2 14.5 0.00 0.00 0.00 64
20260505074003 16 42 3.2 11.3 0.00 0.00 0.00 65
20260505073503 16 27 3.2 6.4 0.00 0.00 0.00 65
20260505073004 16 8 6.4 17.7 0.00 0.00 0.00 66
20260505072504 15 3 3.2 11.3 0.00 0.00 0.00 67
20260505072006 13 355 6.4 14.5 0.00 0.00 0.00 67
20260505071503 13 8 6.4 17.7 0.00 0.00 0.00 67
20260505071004 15 3 11.3 25.7 0.00 0.00 0.00 67